C/2011 UF305 ( LINEAR )

Japanese version
Home page
Updated on February 1, 2012

---------------------------------------------------------------------

* Profile

Discovery Date October 31, 2011
Magnitude 18.1 mag
Discoverer Lincoln Laboratory Near-Earth Asteroid Research project

* Pictures

* Orbital Elements

Epoch 2012 July 12.0 TT = JDT 2456120.5
T 2012 July 22.16244 TT                                 MPC
q   2.1381887            (2000.0)            P               Q
z  -0.0002989      Peri.  121.99287     -0.29609994     -0.35829352
 +/-0.0000141      Node   297.43562     +0.07010655     +0.91632564
e   1.0006390      Incl.   93.96032     +0.95258065     -0.17881018
From 101 observations 2011 July 25-2012 Jan. 22, mean residual 0".4.

* Finding Charts

* Magnitudes Graph

        m1 = 8.7 + 5 log d + 10.0 log r

---------------------------------------------------------------------

The orbital elements are published on M.P.E.C. 2012-B78.
The charts are made with StellaNavigator Ver.8 (AstroArts).
The magnitudes graphs are made with Comet for Windows.

---------------------------------------------------------------------

Copyright(C) Seiichi Yoshida (comet@aerith.net). All rights reserved.